This is the latest recevied weather packets stored in our database for station/object WB0OCV. If no packets are shown the sender has not sent any weather packets the latest 1 day(s).
| Time | Temp. | Humidity | Pressure | Rain* | Wind** | Luminosity | Snow |
|---|---|---|---|---|---|---|---|
| 1778011176 | 17.22° C | 69% | 1014.1 hPa | 0 mm | 3.13 m/s, 298° | 525 W/m² | - |
| 1778010874 | 17.22° C | 70% | 1014 hPa | 0 mm | 1.79 m/s, 286° | 538 W/m² | - |
| 1778010571 | 17.22° C | 69% | 1014.1 hPa | 0 mm | 2.68 m/s, 244° | 552 W/m² | - |
| 1778010268 | 17.22° C | 70% | 1013.9 hPa | 0 mm | 2.68 m/s, 204° | 566 W/m² | - |
| 1778009968 | 17.22° C | 69% | 1014.1 hPa | 0 mm | 1.34 m/s, 140° | 579 W/m² | - |
| 1778009666 | 18.33° C | 66% | 1014.1 hPa | 0 mm | 0.89 m/s, 175° | 590 W/m² | - |
| 1778009364 | 17.78° C | 67% | 1014 hPa | 0 mm | 0.89 m/s, 204° | 600 W/m² | - |
| 1778009062 | 17.78° C | 68% | 1014.1 hPa | 0 mm | 1.34 m/s, 181° | 610 W/m² | - |
| 1778008759 | 17.78° C | 69% | 1014.1 hPa | 0 mm | 0.89 m/s, 187° | 623 W/m² | - |
| 1778008458 | 17.78° C | 67% | 1014.4 hPa | 0 mm | 1.79 m/s, 162° | 635 W/m² | - |
| 1778008154 | 17.78° C | 67% | 1014.5 hPa | 0 mm | 1.79 m/s, 187° | 644 W/m² | - |
| 1778007849 | 17.78° C | 67% | 1014.5 hPa | 0 mm | 1.34 m/s, 248° | 656 W/m² | - |
| 1778007545 | 18.33° C | 66% | 1014.5 hPa | 0 mm | 0.45 m/s, 132° | 667 W/m² | - |
| 1778007242 | 18.33° C | 67% | 1014.5 hPa | 0 mm | 1.79 m/s, 202° | 670 W/m² | - |
| 1778006938 | 18.33° C | 69% | 1014.6 hPa | 0 mm | 0.89 m/s, 172° | 684 W/m² | - |
| 1778006635 | 18.33° C | 67% | 1014.5 hPa | 0 mm | 2.24 m/s, 223° | 693 W/m² | - |
| 1778006332 | 17.78° C | 68% | 1014.5 hPa | 0 mm | 0.89 m/s, 104° | 703 W/m² | - |
| 1778006029 | 18.33° C | 70% | 1014.7 hPa | 0 mm | 0.89 m/s, 196° | 712 W/m² | - |
| 1778005726 | 17.78° C | 68% | 1014.8 hPa | 0 mm | 0.89 m/s, 136° | 719 W/m² | - |
| 1778005422 | 17.78° C | 68% | 1014.5 hPa | 0 mm | 0.89 m/s, 162° | 730 W/m² | - |
| 1778005119 | 18.89° C | 68% | 1014.6 hPa | 0 mm | 1.34 m/s, 211° | 735 W/m² | - |
| 1778004817 | 18.33° C | 68% | 1014.5 hPa | 0 mm | 0.45 m/s, 216° | 742 W/m² | - |
| 1778004513 | 18.33° C | 68% | 1014.8 hPa | 0 mm | 1.79 m/s, 264° | 747 W/m² | - |
| 1778004210 | 18.33° C | 67% | 1014.7 hPa | 0 mm | 1.34 m/s, 216° | 754 W/m² | - |
| 1778003906 | 18.33° C | 67% | 1014.7 hPa | 0 mm | 1.34 m/s, 113° | 762 W/m² | - |
* Rain latest hour (hover to see other rain measurements)
** Current wind speed in m/s (hover to see current wind gust speed)